[[{"header":{"parameterUnit":"m.s-1","parameterCategory":1,"la1":30.2991,"la2":30.254,"lo1":-89.0895,"lo2":-89.0444,"dy":0.0017,"dx":0.0017,"nx":28,"ny":28,"refTime":"2024-02-28T09:00:00:Z","depth":0,"parameterNumber":2,"parameterNumberName":"U-component_of_WINDS"},"data":[0,0,0,0,0,0,0,0,0,0,0,0,0,0,0,0,0,0,0,0,0,0,0,0,0,0,0,0,0,0,0,0,0,0,0,0,0,0,0,0,0,0,0,0,0,0,0,0,0,0,0,0,0,0,0,0,0,0,0.4489,0.4488,0,0.4426,0.4425,0.4424,0.4401,0.4401,0.4401,0.4402,0.4336,0.4334,0.4332,0,0,0,0,0,0,0,0,0,0,0,0,0,0.4588,0.4586,0.4489,0.4488,0.4487,0.4426,0.4425,0.4424,0.4401,0.4401,0.4402,0.4402,0.4337,0.4334,0.4332,0,0,0,0,0,0,0,0,0,0,0,0,0,0.4537,0.4586,0.4489,0.4468,0.4466,0.4426,0.4425,0.4424,0.4401,0.4401,0.4402,0.4402,0.4337,0.4335,0.4332,0.4307,0,0,0.4323,0.4321,0,0,0,0,0,0,0,0,0.454,0.4533,0.4472,0.447,0.4467,0.4422,0.4436,0.4385,0.4401,0.4426,0.4402,0.4402,0.4364,0.4359,0.4347,0.4304,0.4302,0.4322,0.4321,0.4319,0.4319,0,0,0,0,0,0,0,0.4543,0.4536,0.4464,0.4471,0.4468,0.4462,0.4455,0.4426,0.4394,0.4423,0.4422,0.4415,0.4363,0.4349,0.4345,0.4301,0.4323,0.432,0.4318,0.4317,0.4235,0.4234,0,0,0,0,0,0,0.455,0.4539,0.4466,0.4462,0.4505,0.446,0.4452,0.4436,0.4394,0.4388,0.4414,0.4414,0.4354,0.4348,0.4342,0.4311,0.432,0.4317,0.4315,0.4235,0.4235,0.4234,0,0,0,0,0,0,0.4553,0.4544,0.4469,0.45,0.449,0.4458,0.444,0.4434,0.4421,0.4387,0.4381,0.4407,0.4354,0.4346,0.4316,0.4309,0.4315,0.4313,0.4236,0.4235,0.4234,0.4249,0,0,0,0,0,0,0.4556,0.4545,0.4536,0.45,0.4488,0.4444,0.4439,0.4433,0.4416,0.4415,0.4379,0.4373,0.4354,0.4321,0.4313,0.4305,0.4311,0.4236,0.4235,0.4235,0.4249,0.4249,0.4248,0,0,0,0,0,0.4559,0.4542,0.4536,0.4527,0.4476,0.4444,0.4437,0.4416,0.4416,0.4406,0.4384,0.4374,0.431,0.4318,0.4309,0.43,0.4237,0.4236,0.4235,0.4249,0.4249,0.4248,0,0,0,0,0,0,0.4578,0.4537,0.4529,0.4501,0.4476,0.444,0.4427,0.4416,0.4391,0.4391,0.4365,0.4357,0.4329,0.4311,0.432,0.4274,0.4273,0.427,0.4287,0.4286,0.4286,0.4291,0.4308,0,0,0,0,0,0.4579,0.4557,0.4522,0.45,0.4488,0.446,0.4445,0.443,0.4404,0.4393,0.4369,0.4343,0.4317,0.43,0.4275,0.4246,0.4237,0.4235,0.4235,0.4235,0.4233,0.4216,0.4214,0.4231,0.4231,0.4231,0,0,0.4581,0.4556,0.4543,0.4503,0.4482,0.4459,0.4451,0.4427,0.4409,0.4389,0.4359,0.434,0.4309,0.428,0.4266,0.4264,0.4226,0.4233,0.4234,0.4232,0.4215,0.4213,0.4212,0.423,0.423,0.423,0,0,0.4572,0.4551,0.453,0.4509,0.4478,0.4459,0.4454,0.4419,0.4406,0.4376,0.436,0.4338,0.4294,0.4273,0.4256,0.4238,0.4228,0.423,0.423,0.4214,0.4212,0.4211,0.4205,0.4203,0.4228,0.4228,0.4228,0,0.4578,0.4543,0.4521,0.4497,0.448,0.4461,0.4439,0.442,0.4381,0.4369,0.4368,0.4312,0.429,0.4255,0.4251,0.4238,0.4231,0.4235,0.4214,0.4213,0.4211,0.4205,0.4203,0.4229,0.4229,0.4229,0.4229,0,0.4552,0.4527,0.4514,0.4478,0.4459,0.4437,0.441,0.4394,0.4381,0.4362,0.4331,0.4303,0.4272,0.4262,0.4249,0.4225,0.4225,0.4219,0.4218,0.4211,0.4204,0.4202,0.423,0.423,0.4229,0.4229,0,0,0.4554,0.4505,0.4501,0.4484,0.4447,0.4428,0.4404,0.4373,0.436,0.4333,0.4313,0.4275,0.427,0.4251,0.4235,0.4221,0.4208,0.4217,0.4216,0.4217,0.4179,0.4184,0.4182,0.4201,0.42,0.42,0.4182,0,0.454,0.4498,0.4477,0.4444,0.4421,0.4401,0.4381,0.4356,0.4337,0.4314,0.4294,0.4268,0.4262,0.4251,0.4236,0.4213,0.4201,0.4214,0.4181,0.418,0.419,0.4179,0.4184,0.4168,0.4179,0.4179,0.4179,0,0.4519,0.4494,0.4458,0.4424,0.4413,0.4395,0.4365,0.4344,0.4315,0.4302,0.4281,0.4265,0.4239,0.4239,0.4202,0.4211,0.4196,0.4183,0.4182,0.4178,0.418,0.4175,0.4163,0.4161,0.4174,0.4175,0.4175,0,0.4525,0.4481,0.4454,0.444,0.44,0.4387,0.437,0.4341,0.4324,0.4297,0.4285,0.4256,0.4239,0.4216,0.4193,0.4195,0.4158,0.4156,0.4147,0.4148,0.4141,0.4141,0.4127,0.413,0.413,0.413,0.413,0,0.4512,0.4491,0.4456,0.444,0.4415,0.4391,0.4367,0.4348,0.4322,0.4301,0.4282,0.4263,0.4233,0.4209,0.4191,0.4163,0.4156,0.4144,0.414,0.4146,0.4148,0.4137,0.4137,0.413,0.413,0.413,0.413,0,0.4515,0.4491,0.446,0.4424,0.4414,0.4398,0.4366,0.4349,0.433,0.4303,0.4295,0.4264,0.4235,0.421,0.4171,0.4159,0.413,0.4124,0.414,0.4138,0.413,0.4131,0.4108,0.4103,0.411,0.411,0.411,0,0.4509,0.4492,0.4454,0.4439,0.4422,0.4398,0.438,0.4355,0.4337,0.4302,0.4289,0.4259,0.4233,0.4188,0.4162,0.4132,0.4125,0.4119,0.4121,0.4128,0.4126,0.4127,0.4125,0.412,0.412,0.412,0.412,0,0.4501,0.4489,0.4465,0.4436,0.4415,0.4391,0.4366,0.4355,0.4325,0.4305,0.4276,0.4256,0.4217,0.4187,0.4155,0.4136,0.4123,0.4119,0.4115,0.4122,0.4132,0.4127,0.4141,0.412,0.412,0.412,0.412,0.412,0.4499,0.4483,0.4454,0.4427,0.4406,0.4383,0.4365,0.4343,0.4318,0.4285,0.4271,0.4241,0.4211,0.4166,0.4147,0.4123,0.412,0.4115,0.4114,0.4113,0.4114,0.4136,0.4117,0.4117,0.4117,0.4117,0.4117,0,0.449,0.447,0.4445,0.4412,0.439,0.438,0.4352,0.4334,0.4309,0.4282,0.4258,0.4223,0.4194,0.4165,0.4134,0.412,0.4114,0.4113,0.4114,0.411,0.4118,0.4124,0.4119,0.4119,0.4119,0.4119,0.4119,0.4119,0.4483,0.4456,0.4441,0.4403,0.4382,0.4354,0.4338,0.4317,0.4296,0.4259,0.4235,0.4216,0.4188,0.4155,0.4128,0.412,0.4109,0.4111,0.4101,0.4109,0.4109,0.4109,0.4115,0.4108,0.4108,0.4095,0.4095,0.4095]},{"header":{"parameterUnit":"m.s-1","parameterCategory":1,"la1":30.2991,"la2":30.254,"lo1":-89.0895,"lo2":-89.0444,"dy":0.0017,"dx":0.0017,"nx":28,"ny":28,"refTime":"2024-02-28T09:00:00:Z","depth":0,"parameterNumber":3,"parameterNumberName":"V-component_of_WINDS"},"data":[0,0,0,0,0,0,0,0,0,0,0,0,0,0,0,0,0,0,0,0,0,0,0,0,0,0,0,0,0,0,0,0,0,0,0,0,0,0,0,0,0,0,0,0,0,0,0,0,0,0,0,0,0,0,0,0,0,0,3.8156,3.8155,0,3.8072,3.8071,3.807,3.8024,3.8023,3.8023,3.8023,3.7931,3.7929,3.7927,0,0,0,0,0,0,0,0,0,0,0,0,0,3.827,3.8268,3.8156,3.8155,3.8154,3.8072,3.8071,3.807,3.8024,3.8023,3.8023,3.8023,3.7932,3.7929,3.7927,0,0,0,0,0,0,0,0,0,0,0,0,0,3.8207,3.8268,3.8156,3.8121,3.8117,3.8073,3.8071,3.807,3.8024,3.8023,3.8023,3.8023,3.7933,3.793,3.7926,3.7908,0,0,3.7916,3.7914,0,0,0,0,0,0,0,0,3.8211,3.8203,3.8127,3.8123,3.8119,3.8058,3.8078,3.8015,3.8024,3.8059,3.8023,3.8023,3.7973,3.7967,3.7951,3.7904,3.79,3.7915,3.7913,3.7912,3.7911,0,0,0,0,0,0,0,3.8215,3.8206,3.8123,3.8126,3.8121,3.8108,3.8098,3.8066,3.8018,3.8056,3.8052,3.8043,3.7971,3.7955,3.7949,3.7899,3.7915,3.7912,3.791,3.7909,3.7832,3.7833,0,0,0,0,0,0,3.8226,3.821,3.8125,3.812,3.8165,3.8106,3.8095,3.8078,3.8018,3.8009,3.8044,3.8041,3.7961,3.7953,3.7945,3.792,3.7912,3.7908,3.7906,3.7832,3.7832,3.7833,0,0,0,0,0,0,3.8228,3.8219,3.8129,3.8164,3.8152,3.8104,3.8085,3.8076,3.806,3.8009,3.8,3.8036,3.796,3.795,3.7918,3.7917,3.7907,3.7904,3.7832,3.7832,3.7833,3.7871,0,0,0,0,0,0,3.8232,3.822,3.8214,3.8164,3.815,3.8105,3.8084,3.8075,3.8055,3.8051,3.7999,3.7991,3.7959,3.7924,3.7915,3.7912,3.7901,3.7832,3.7832,3.7832,3.787,3.7872,3.7875,0,0,0,0,0,3.8236,3.8227,3.8214,3.8204,3.8142,3.8105,3.8097,3.8063,3.8055,3.8048,3.8015,3.7992,3.7918,3.7921,3.791,3.7906,3.7832,3.7832,3.7832,3.7869,3.7872,3.7875,0,0,0,0,0,0,3.8275,3.822,3.8205,3.818,3.8148,3.8098,3.8087,3.8067,3.8035,3.8033,3.799,3.7979,3.7951,3.7925,3.7929,3.7885,3.7873,3.7871,3.7904,3.7906,3.7909,3.7916,3.7898,0,0,0,0,0,3.8282,3.8258,3.821,3.8192,3.8177,3.8135,3.8118,3.8095,3.8059,3.8045,3.8009,3.7974,3.7943,3.7923,3.7891,3.7866,3.7853,3.7857,3.786,3.7862,3.7861,3.7845,3.7846,3.7833,3.7833,3.7833,0,0,3.8293,3.826,3.8248,3.82,3.8172,3.8147,3.8124,3.8099,3.808,3.804,3.8009,3.7982,3.7939,3.791,3.7896,3.7888,3.7862,3.7862,3.7865,3.7862,3.7845,3.7847,3.7848,3.7833,3.7833,3.7833,0,0,3.8302,3.8275,3.8258,3.8231,3.819,3.8163,3.8158,3.8111,3.8092,3.8061,3.803,3.8006,3.7953,3.7924,3.7902,3.79,3.7878,3.7891,3.7904,3.7889,3.789,3.7891,3.789,3.7891,3.789,3.789,3.789,0,3.8321,3.8285,3.8251,3.8228,3.8207,3.8172,3.8153,3.8128,3.8078,3.8064,3.8056,3.799,3.7958,3.7923,3.7922,3.7906,3.7899,3.7897,3.7893,3.7894,3.7894,3.7893,3.7892,3.7892,3.7892,3.7891,3.7891,0,3.8311,3.8286,3.8276,3.8232,3.8209,3.8189,3.8149,3.8131,3.8109,3.8082,3.8049,3.8011,3.7971,3.796,3.7938,3.7921,3.7917,3.7902,3.7888,3.7898,3.7896,3.7895,3.7895,3.7894,3.7893,3.7893,0,0,3.8342,3.828,3.8277,3.8256,3.8209,3.8188,3.8164,3.8127,3.8112,3.8079,3.8058,3.8014,3.8,3.7975,3.7949,3.7936,3.7937,3.7922,3.792,3.7926,3.7915,3.7927,3.7928,3.7922,3.7922,3.7921,3.7919,0,3.8344,3.8304,3.8272,3.8243,3.8219,3.8185,3.8164,3.8132,3.8106,3.808,3.8049,3.8019,3.8003,3.7988,3.7973,3.794,3.7934,3.794,3.79,3.7899,3.7913,3.7926,3.7939,3.7939,3.7918,3.7918,3.7918,0,3.8342,3.8312,3.8281,3.8237,3.8225,3.8208,3.8172,3.8148,3.811,3.8091,3.8064,3.8038,3.801,3.7999,3.7959,3.7964,3.7945,3.7926,3.7925,3.792,3.7909,3.7922,3.7938,3.7938,3.7916,3.7916,3.7916,0,3.8369,3.832,3.8296,3.8279,3.8226,3.8215,3.8192,3.8154,3.8134,3.8101,3.8087,3.8051,3.8031,3.8002,3.7966,3.7961,3.793,3.7916,3.7913,3.7914,3.7908,3.7909,3.7921,3.7896,3.7896,3.7896,3.7896,0,3.8375,3.8357,3.8307,3.8292,3.8271,3.8233,3.8213,3.8186,3.8153,3.8131,3.8098,3.8077,3.8031,3.8004,3.7974,3.7946,3.7937,3.792,3.7912,3.7923,3.7925,3.7911,3.791,3.7896,3.7896,3.7896,3.7896,0,3.8401,3.8367,3.8338,3.8291,3.8279,3.8265,3.8224,3.8207,3.8179,3.8151,3.8142,3.8097,3.8064,3.8025,3.7977,3.7958,3.7932,3.792,3.7945,3.7941,3.794,3.7941,3.7944,3.7942,3.7918,3.7919,3.7919,0,3.8408,3.8394,3.8346,3.833,3.8309,3.8283,3.8263,3.8225,3.8204,3.816,3.8148,3.8113,3.8083,3.8031,3.7992,3.7956,3.7944,3.7947,3.7938,3.7949,3.7944,3.7945,3.7943,3.795,3.795,3.7951,3.7951,0,3.8423,3.8407,3.8381,3.8348,3.8325,3.8297,3.8267,3.8255,3.8211,3.819,3.8156,3.8133,3.8086,3.8051,3.801,3.7984,3.796,3.7954,3.7951,3.7962,3.7978,3.797,3.7953,3.7954,3.7954,3.7954,3.7953,3.7953,3.844,3.8426,3.8391,3.8362,3.8336,3.8309,3.8291,3.8261,3.8233,3.8194,3.8172,3.8139,3.81,3.8043,3.8018,3.799,3.7982,3.7978,3.7977,3.7977,3.798,3.7982,3.7983,3.7982,3.7982,3.7982,3.7982,0,3.8454,3.843,3.8404,3.8364,3.8341,3.8322,3.8288,3.827,3.8242,3.8209,3.818,3.8142,3.8107,3.8067,3.8029,3.8015,3.8002,3.8006,3.8007,3.8001,3.799,3.7996,3.8017,3.8017,3.8017,3.8017,3.8017,3.8017,3.8459,3.8434,3.8414,3.8376,3.8351,3.832,3.8302,3.8277,3.825,3.8209,3.8182,3.8156,3.8119,3.8079,3.8046,3.8035,3.8022,3.8029,3.8015,3.8005,3.8002,3.7999,3.8005,3.8027,3.8027,3.8028,3.8028,3.8028]}]]